User: anonymous   Login
Location: Unspecified
(47.5487°N, 19.0270°E)
Time: 20:21:18
(UTC+02:00)
Language:

ISS - Orbit

View from above orbital plane
View from above orbital plane
View from above satellite
View from above satellite

Ground track
Ground track

The orbit data is extracted from the following two-line orbital elements,

1 25544U 98067A   18144.02249693  .00016717  00000-0  10270-3 0  9033
2 25544  51.6360 139.1761 0003958 115.9065 244.2496 15.54085438 34756
Epoch (UTC): 24 May 2018 00:32:23
Eccentricity: 0.0003958
inclination: 51.6360°
perigee height: 402 km
apogee height: 407 km
right ascension of ascending node: 139.1761°
argument of perigee: 115.9065°
revolutions per day: 15.54085438
mean anomaly at epoch: 244.2496°
orbit number at epoch: 3475

The dashed part of the orbit path shows where the satellite is in the earth's shadow,  

DLR